Location: Christianberg
(48.9086°N, 14.0209°E)
Time: 20:45:45
(UTC+00:00)

SL-4 R/B - Pass Details

Date: 24 October 2021
Orbit: 427 x 661 km, 51.6° (Epoch: 03 December)

Event Time Altitude Azimuth Distance (km) Brightness Sun altitude
Exits shadow 02:51:08 40° 106° (ESE) 850 3.3 -27.9°
Drops below altitude 10° 02:53:52 10° 109° (ESE) 1,836 5.4 -27.5°
Sets 02:56:00 0° 110° (ESE) 2,687 6.4 -27.2°
